Flag for U.S.A. Weather past 2 weeks in Pittsburgh, Pennsylvania, U.S.A.

Now
60 °F

Passing clouds.


Feels Like: 60 °F
Forecast: 63 / 77 °F
Wind: 7 mph from Southwest

Location: Allegheny County Airport

Current Time: Jul 1, 2015 at 3:21:39 AM

Latest Report: Jul 1, 2015 at 2:53 AM


Visibility: 7 mi

Pressure: 29.82 "Hg

Humidity: 83%

Dew point: 55 °F

Location of PittsburghLocation

Historic Weather in Pittsburgh — Graph

°F

Pittsburgh temperature yesterday

Maximum temperature yesterday: 77 °F (at 1:53 PM)
Minimum temperature yesterday: 60 °F (at 10:53 PM)
Average temperature yesterday: 66 °F

Past Weeks' High & Low Weather Summary

 TemperatureHumidityPressure
High84 °F (Jun 21, 3:53 PM)91% (Jun 20, 5:53 AM)30.15 "Hg (Jun 20, 5:53 AM)
Low54 °F (Jun 29, 5:53 AM)39% (Jun 24, 1:53 PM)29.63 "Hg (Jun 27, 6:53 PM)
Average69 °F72%29.95 "Hg
* Reported Jun 16 1:53 AM — Jul 1 1:53 AM, Pittsburgh, Weather by CustomWeather, © 2015

Note: Actual official high and low records may vary slightly from our data, if they occured in-between our weather recording intervals... More about our weather records

Advertising

Pittsburgh weather history for previous 24 hours

 ConditionsComfort  
Time TempWeatherWind HumidityBarometerVisibility
1:53 AM
Wed, Jul 1
60 °FFog.9 mph86%29.82 "Hg6 mi
11:53 PM
Tue, Jun 30
60 °FClear.8 mph86%29.85 "Hg7 mi
10:53 PM60 °FClear.7 mph86%29.85 "Hg7 mi
10:00 PM61 °FPassing clouds.8 mph87%29.85 "Hg7 mi
8:53 PM62 °FPartly sunny.8 mph83%29.83 "Hg8 mi
7:53 PM63 °FOvercast.6 mph87%29.81 "Hg7 mi
7:02 PM62 °FLight rain. Mostly cloudy.12 mph83%29.82 "Hg6 mi
6:53 PM62 °FLight rain. Mostly cloudy.8 mph83%29.82 "Hg2 mi
6:04 PM69 °FBroken clouds.6 mph79%29.80 "Hg10 mi
4:53 PM72 °FMostly cloudy.5 mph68%29.78 "Hg10 mi
3:53 PM77 °FPartly sunny.15 mph56%29.80 "Hg10 mi
2:53 PM77 °FPassing clouds.16 mph54%29.81 "Hg10 mi
1:53 PM77 °FPartly sunny.15 mph56%29.83 "Hg10 mi
12:53 PM75 °FBroken clouds.14 mph62%29.85 "Hg10 mi
11:53 AM71 °FMostly cloudy.10 mph73%29.87 "Hg10 mi
10:56 AM68 °FCloudy.10 mph78%29.88 "Hg7 mi
10:00 AM67 °FMostly cloudy.9 mph81%29.88 "Hg10 mi
9:00 AM67 °FOvercast.7 mph81%29.88 "Hg8 mi
7:53 AM65 °FFog.7 mph87%29.87 "Hg6 mi
7:02 AM64 °FMore clouds than sun.7 mph87%29.87 "Hg7 mi
6:53 AM64 °FFog.8 mph87%29.86 "Hg6 mi
5:53 AM64 °FOvercast.7 mph84%29.84 "Hg10 mi
4:53 AM63 °FOvercast.7 mph87%29.83 "Hg10 mi
4:04 AM63 °FPartly cloudy.7 mph84%29.83 "Hg10 mi
3:53 AM63 °FPassing clouds.7 mph84%29.82 "Hg10 mi
Weather by CustomWeather, © 2015

See weather overviewHow to use our weather pages